Home   Weather   Gibraltar   Gibraltar   Past weeks
Flag for Gibraltar

Past Weather in Gibraltar, Gibraltar, Gibraltar — Yesterday and Last 2 Weeks

Currently: 68 °F. Sunny. (Weather station: Gibraltar Airport, Gibraltar). See more current weather

Past Weather in Gibraltar — Graph

°F

Gibraltar Temperature Yesterday

Maximum temperature yesterday: 66 °F (at 3:20 pm)
Minimum temperature yesterday: 61 °F (at 12:20 am)
Average temperature yesterday: 64 °F

High & Low Weather Summary for the Past Weeks

 TemperatureHumidityPressure
High73 °F (Apr 3, 5:50 pm)94% (Mar 30, 4:44 pm)30.45 "Hg (Mar 30, 4:44 pm)
Low52 °F (Mar 31, 2:50 pm)33% (Apr 9, 2:20 pm)29.45 "Hg (Mar 30, 1:50 pm)
Average63 °F73%30.08 "Hg
* Reported Mar 30 1:20 pm — Apr 14 2:50 pm, Gibraltar. Weather by CustomWeather, © 2024

Note: Actual official high and low records may vary slightly from our data, if they occured in-between our weather recording intervals... More about our weather records

Gibraltar Weather History for the Previous 24 Hours

Scroll right to see more
 ConditionsComfort  
Time TempWeatherWind HumidityBarometerVisibility
2:50 pm
Sun, Apr 14
68 °FSunny.12 mph64%30.24 "Hg10 mi
2:20 pm68 °FSunny.13 mph60%30.24 "Hg10 mi
1:50 pm68 °FSunny.12 mph60%30.24 "Hg10 mi
1:20 pm68 °FSunny.16 mph60%30.24 "Hg10 mi
12:50 pm66 °FSunny.15 mph68%30.24 "Hg10 mi
12:20 pm66 °FSunny.16 mph64%30.24 "Hg10 mi
11:50 am66 °FSunny.14 mph68%30.24 "Hg10 mi
11:20 am66 °FPassing clouds.10 mph73%30.24 "HgN/A
10:50 am64 °FSunny.12 mph73%30.24 "Hg10 mi
10:20 am64 °FSunny.12 mph73%30.24 "Hg10 mi
9:50 am64 °FSunny.13 mph73%30.24 "Hg10 mi
9:20 am64 °FSunny.15 mph68%30.24 "Hg10 mi
8:50 am64 °FPassing clouds.12 mph68%30.24 "HgN/A
7:50 am63 °FSunny.14 mph73%30.21 "Hg10 mi
6:50 am63 °FClear.14 mph77%30.21 "Hg10 mi
5:50 am63 °FClear.15 mph77%30.21 "Hg10 mi
5:20 am63 °FMild.16 mph73%30.21 "HgN/A
4:50 am63 °FMild.17 mph77%30.21 "HgN/A
4:20 am63 °FMild.16 mph77%30.24 "HgN/A
3:20 am63 °FMild.17 mph77%30.24 "HgN/A
2:50 am63 °FMild.17 mph77%30.24 "HgN/A
2:20 am63 °FMild.14 mph83%30.27 "HgN/A
1:20 am63 °FMild.12 mph77%30.27 "HgN/A
12:50 am64 °FMild.13 mph64%30.27 "HgN/A
12:20 am64 °FMild.14 mph60%30.27 "HgN/A
11:50 pm
Sat, Apr 13
66 °FMild.14 mph49%30.27 "HgN/A
11:20 pm66 °FMild.14 mph56%30.27 "HgN/A
10:50 pm64 °FMild.14 mph64%30.27 "HgN/A
10:20 pm64 °FMild.10 mph60%30.27 "HgN/A
9:50 pm64 °FMild.8 mph68%30.27 "HgN/A
8:50 pm64 °FMild.13 mph73%30.27 "HgN/A
8:20 pm64 °FMild.12 mph78%30.27 "HgN/A
7:50 pm64 °FPassing clouds.8 mph78%30.27 "HgN/A
7:20 pm64 °FPassing clouds.8 mph73%30.27 "HgN/A
6:50 pm66 °FSunny.9 mph68%30.27 "Hg10 mi
6:20 pm66 °FSunny.10 mph68%30.27 "Hg10 mi
5:50 pm66 °FSunny.12 mph68%30.27 "Hg10 mi
5:20 pm64 °FPassing clouds.13 mph73%30.27 "HgN/A
4:50 pm64 °FPassing clouds.14 mph73%30.27 "HgN/A
4:20 pm66 °FPassing clouds.13 mph68%30.27 "HgN/A
Weather by CustomWeather, © 2024

See weather overview